Sponsored by H&N Chevrolet-Buick

Weather

Hourly Observations for January 14, 2020

Temp ( °F °C ) Dew Point ( °F °C ) Humidity (%) Winds ( mph kmh ) Pressure ( in mb ) Visibility ( mi km ) Precip ( " mm )
12:53 am 00:53 Clear -3 -19.4 -11 -23.9 68 68 WNW 22 35 30.42 1030 8 12.874752 0 0
1:53 am 01:53 Hazy -4 -20 -11 -23.9 71 71 NW 24 39 30.42 1030 5 8.04672 0 0
2:53 am 02:53 Hazy -4 -20 -11 -23.9 71 71 NW 22 35 30.45 1031 6 9.656064 0 0
3:53 am 03:53 Clear -4 -20 -12 -24.4 68 68 NW 15 24 30.48 1032 10 16.09344 0 0
4:53 am 04:53 Clear -5 -20.6 -12 -24.4 72 72 NW 17 28 30.5 1033 10 16.09344 0 0
5:53 am 05:53 Clear -5 -20.6 -12 -24.4 72 72 WNW 20 31 30.53 1034 10 16.09344 0 0
6:53 am 06:53 Clear -6 -21.1 -13 -25 71 71 WNW 18 30 30.53 1034 10 16.09344 0 0
7:53 am 07:53 Sunny -6 -21.1 -13 -25 71 71 WNW 13 20 30.56 1035 10 16.09344 0 0
8:53 am 08:53 Sunny -5 -20.6 -13 -25 68 68 WNW 16 26 30.59 1036 10 16.09344 0 0
9:53 am 09:53 Partly Cloudy -4 -20 -12 -24.4 68 68 WNW 14 22 30.62 1037 10 16.09344 0 0
10:53 am 10:53 Sunny -2 -18.9 -10 -23.3 68 68 WNW 17 28 30.65 1038 10 16.09344 0 0
11:53 am 11:53 Sunny 0 -17.8 -9 -22.8 65 65 WNW 16 26 30.65 1038 10 16.09344 0 0
12:53 pm 12:53 Sunny 1 -17.2 -8 -22.2 65 65 WNW 18 30 30.65 1038 10 16.09344 0 0
1:53 pm 13:53 Sunny 1 -17.2 -7 -21.7 68 68 WNW 17 28 30.65 1038 10 16.09344 0 0
2:53 pm 14:53 Sunny 2 -16.7 -7 -21.7 65 65 WNW 15 24 30.65 1038 10 16.09344 0 0
3:53 pm 15:53 Sunny 1 -17.2 -7 -21.7 68 68 WNW 14 22 30.65 1038 10 16.09344 0 0
4:53 pm 16:53 Sunny 0 -17.8 -8 -22.2 69 69 WNW 13 20 30.65 1038 10 16.09344 0 0
5:53 pm 17:53 Clear -2 -18.9 -9 -22.8 72 72 WNW 8 13 30.68 1039 10 16.09344 0 0
6:53 pm 18:53 Clear -4 -20 -10 -23.3 75 75 NW 6 9 30.68 1039 10 16.09344 0 0
7:53 pm 19:53 Clear -7 -21.7 -12 -24.4 79 79 WNW 7 11 30.71 1040 10 16.09344 0 0
8:53 pm 20:53 Clear -7 -21.7 -13 -25 75 75 WNW 10 17 30.71 1040 10 16.09344 0 0
9:40 pm 21:40 Mostly Cloudy -6 -21.1 -12 -24.4 75 75 WNW 9 15 30.77 1042 10 16.09344 0 0
9:53 pm 21:53 Cloudy -6 -21.1 -12 -24.4 75 75 WNW 9 15 30.71 1040 10 16.09344 0 0
10:53 pm 22:53 Cloudy -4 -20 -11 -23.9 71 71 W 7 11 30.68 1039 10 16.09344 0 0
11:53 pm 23:53 Cloudy -4 -20 -10 -23.3 75 75 WNW 8 13 30.68 1039 10 16.09344 0 0

Powered by AerisWeather